Carolina, PR (00979)

10:45 PM AST on February 08, 2016 (GMT -0400)
Manejo de Emergencias Carolina | | Change Station
CLOSE
Current Station
Personal Weather Station
Location: Carolina, PR
Elevation: 40 ft
Nearby Weather Stations

Elev 40 ft 18.38 °N, 65.97 °W | Updated 11 minutes ago

Clear
Clear
74.6 °F
Feels Like 74 °F
N
0.0
Wind Variable Wind from North
Gusts 0.0 mph

Today
High -- | Low -- °F
--% Chance of Precip.
Yesterday
High -- | Low -- °F
Precip. -- in
Pressure 30.04 in
Visibility 10.0 miles
Clouds Clear
Heat Index 74 °F
Dew Point 70 °F
Humidity 85%
Rainfall Not available.
Snow Depth Not available.
6:55 AM 6:21 PM
New Moon, 0% visible
METAR TJSJ 090156Z 11004KT 10SM CLR 25/21 A3004 RMK AO2 SLP172 T02500206
Pressure 30.04 in
Visibility 10.0 miles
Clouds Clear
Heat Index 74 °F
Dew Point 70 °F
Humidity 85%
Rainfall Not available.
Snow Depth Not available.
6:55 AM 6:21 PM
New Moon, 0% visible
METAR TJSJ 090156Z 11004KT 10SM CLR 25/21 A3004 RMK AO2 SLP172 T02500206

10-Day Weather Forecast

Almanac

Astronomy

Feb. 08, 2016 Rise Set
Actual Time
Civil Twilight
Nautical Twilight
Astronomical Twilight
Moon
Length of Visible Light
Length of Day
Tomorrow will be .
, % of the Moon is Illuminated

Today's Extremes

State Highs State Lows

Community

WunderPhotos

Upload Photos

1,891,527 photos uploaded!

WunderBlog® & News

Nearby

Air Quality

  Air Quality AQ Index Pollutant
Not available.

Snow Depth

Station Depth Elevation

Earthquake Activity

City Distance Mag. Time & Date
Minimum magnitude displayed is 2.5.

Coastal Water Temperatures

Place Temperature

Stations

Nearby Weather Stations

Station Location Temp. Windchill Dew Point Humidity Wind Precip. Elev Updated Type
                   

Watches & Warnings

There are currently no watches in effect.